Year,Month,Day,Hour,Minute,Value (Times are PST for temperature in C)
2011,06,26,00,00,11.50
2011,06,26,00,01,11.50
2011,06,26,00,02,11.50
2011,06,26,00,03,11.50
2011,06,26,00,04,11.50
2011,06,26,00,05,11.50
2011,06,26,00,06,11.50
2011,06,26,00,07,11.50
2011,06,26,00,08,11.50
2011,06,26,00,09,11.60
2011,06,26,00,10,11.60
2011,06,26,00,11,11.60
2011,06,26,00,12,11.60
2011,06,26,00,13,11.60
2011,06,26,00,14,11.60
2011,06,26,00,15,11.60
2011,06,26,00,16,11.60
2011,06,26,00,17,11.60
2011,06,26,00,18,11.60
2011,06,26,00,19,11.60
2011,06,26,00,20,11.60
2011,06,26,00,21,11.60
2011,06,26,00,22,11.60
2011,06,26,00,23,11.60
2011,06,26,00,24,11.60
2011,06,26,00,25,11.60
2011,06,26,00,26,11.60
2011,06,26,00,27,11.50
2011,06,26,00,28,11.50
2011,06,26,00,29,11.50
2011,06,26,00,30,11.40
2011,06,26,00,31,11.40
2011,06,26,00,32,11.40
2011,06,26,00,33,11.50
2011,06,26,00,34,11.50
2011,06,26,00,35,11.50
2011,06,26,00,36,11.60
2011,06,26,00,37,11.60
2011,06,26,00,38,11.60
2011,06,26,00,39,11.60
2011,06,26,00,40,11.60
2011,06,26,00,41,11.60
2011,06,26,00,42,11.60
2011,06,26,00,43,11.60
2011,06,26,00,44,11.60
2011,06,26,00,45,11.60
2011,06,26,00,46,11.60
2011,06,26,00,47,11.60
2011,06,26,00,48,11.60
2011,06,26,00,49,11.60
2011,06,26,00,50,11.60
2011,06,26,00,51,11.70
2011,06,26,00,52,11.70
2011,06,26,00,53,11.70
2011,06,26,00,54,11.70
2011,06,26,00,55,11.70
2011,06,26,00,56,11.70
2011,06,26,00,57,11.70
2011,06,26,00,58,11.60
2011,06,26,00,59,11.60
2011,06,26,01,00,11.60
2011,06,26,01,01,11.60
2011,06,26,01,02,11.50
2011,06,26,01,03,11.50
2011,06,26,01,04,11.50
2011,06,26,01,05,11.40
2011,06,26,01,06,11.40
2011,06,26,01,07,11.40
2011,06,26,01,08,11.40
2011,06,26,01,09,11.40
2011,06,26,01,10,11.40
2011,06,26,01,11,11.30
2011,06,26,01,12,11.30
2011,06,26,01,13,11.30
2011,06,26,01,14,11.30
2011,06,26,01,15,11.30
2011,06,26,01,16,11.30
2011,06,26,01,17,11.30
2011,06,26,01,18,11.40
2011,06,26,01,19,11.40
2011,06,26,01,20,11.40
2011,06,26,01,21,11.40
2011,06,26,01,22,11.40
2011,06,26,01,23,11.50
2011,06,26,01,24,11.50
2011,06,26,01,25,11.50
2011,06,26,01,26,11.50
2011,06,26,01,27,11.50
2011,06,26,01,28,11.50
2011,06,26,01,29,11.50
2011,06,26,01,30,11.50
2011,06,26,01,31,11.50
2011,06,26,01,32,11.50
2011,06,26,01,33,11.50
2011,06,26,01,34,11.50
2011,06,26,01,35,11.50
2011,06,26,01,36,11.50
2011,06,26,01,37,11.60
2011,06,26,01,38,11.60
2011,06,26,01,39,11.60
2011,06,26,01,40,11.60
2011,06,26,01,41,11.60
2011,06,26,01,42,11.60
2011,06,26,01,43,11.60
2011,06,26,01,44,11.60
2011,06,26,01,45,11.60
2011,06,26,01,46,11.50
2011,06,26,01,47,11.50
2011,06,26,01,48,11.50
2011,06,26,01,49,11.50
2011,06,26,01,50,11.50
2011,06,26,01,51,11.50
2011,06,26,01,52,11.50
2011,06,26,01,53,11.40
2011,06,26,01,54,11.40
2011,06,26,01,55,11.40
2011,06,26,01,56,11.40
2011,06,26,01,57,11.40
2011,06,26,01,58,11.40
2011,06,26,01,59,11.40
2011,06,26,02,00,11.40
2011,06,26,02,01,11.40
2011,06,26,02,02,11.30
2011,06,26,02,03,11.30
2011,06,26,02,04,11.30
2011,06,26,02,05,11.30
2011,06,26,02,06,11.40
2011,06,26,02,07,11.40
2011,06,26,02,08,11.40
2011,06,26,02,09,11.40
2011,06,26,02,10,11.40
2011,06,26,02,11,11.30
2011,06,26,02,12,11.30
2011,06,26,02,13,11.30
2011,06,26,02,14,11.30
2011,06,26,02,15,11.30
2011,06,26,02,16,11.30
2011,06,26,02,17,11.40
2011,06,26,02,18,11.40
2011,06,26,02,19,11.40
2011,06,26,02,20,11.40
2011,06,26,02,21,11.40
2011,06,26,02,22,11.40
2011,06,26,02,23,11.40
2011,06,26,02,24,11.40
2011,06,26,02,25,11.40
2011,06,26,02,26,11.40
2011,06,26,02,27,11.40
2011,06,26,02,28,11.40
2011,06,26,02,29,11.40
2011,06,26,02,30,11.50
2011,06,26,02,31,11.50
2011,06,26,02,32,11.40
2011,06,26,02,33,11.40
2011,06,26,02,34,11.40
2011,06,26,02,35,11.40
2011,06,26,02,36,11.40
2011,06,26,02,37,11.40
2011,06,26,02,38,11.40
2011,06,26,02,39,11.40
2011,06,26,02,40,11.40
2011,06,26,02,41,11.40
2011,06,26,02,42,11.40
2011,06,26,02,43,11.40
2011,06,26,02,44,11.40
2011,06,26,02,45,11.40
2011,06,26,02,46,11.40
2011,06,26,02,47,11.40
2011,06,26,02,48,11.40
2011,06,26,02,49,11.40
2011,06,26,02,50,11.40
2011,06,26,02,51,11.40
2011,06,26,02,52,11.40
2011,06,26,02,53,11.40
2011,06,26,02,54,11.40
2011,06,26,02,55,11.40
2011,06,26,02,56,11.40
2011,06,26,02,57,11.40
2011,06,26,02,58,11.40
2011,06,26,02,59,11.40
2011,06,26,03,00,11.40
2011,06,26,03,01,11.40
2011,06,26,03,02,11.30
2011,06,26,03,03,11.40
2011,06,26,03,04,11.30
2011,06,26,03,05,11.30
2011,06,26,03,06,11.30
2011,06,26,03,07,11.30
2011,06,26,03,08,11.30
2011,06,26,03,09,11.30
2011,06,26,03,10,11.30
2011,06,26,03,11,11.30
2011,06,26,03,12,11.30
2011,06,26,03,13,11.30
2011,06,26,03,14,11.30
2011,06,26,03,15,11.30
2011,06,26,03,16,11.30
2011,06,26,03,17,11.30
2011,06,26,03,18,11.30
2011,06,26,03,19,11.30
2011,06,26,03,20,11.30
2011,06,26,03,21,11.30
2011,06,26,03,22,11.30
2011,06,26,03,23,11.30
2011,06,26,03,24,11.30
2011,06,26,03,25,11.30
2011,06,26,03,26,11.30
2011,06,26,03,27,11.30
2011,06,26,03,28,11.30
2011,06,26,03,29,11.40
2011,06,26,03,30,11.40
2011,06,26,03,31,11.40
2011,06,26,03,32,11.40
2011,06,26,03,33,11.40
2011,06,26,03,34,11.40
2011,06,26,03,35,11.40
2011,06,26,03,36,11.40
2011,06,26,03,37,11.40
2011,06,26,03,38,11.40
2011,06,26,03,39,11.40
2011,06,26,03,40,11.40
2011,06,26,03,41,11.40
2011,06,26,03,42,11.40
2011,06,26,03,43,11.40
2011,06,26,03,44,11.40
2011,06,26,03,45,11.40
2011,06,26,03,46,11.40
2011,06,26,03,47,11.40
2011,06,26,03,48,11.40
2011,06,26,03,49,11.40
2011,06,26,03,50,11.40
2011,06,26,03,51,11.40
2011,06,26,03,52,11.40
2011,06,26,03,53,11.40
2011,06,26,03,54,11.40
2011,06,26,03,55,11.40
2011,06,26,03,56,11.40
2011,06,26,03,57,11.40
2011,06,26,03,58,11.40
2011,06,26,03,59,11.40
2011,06,26,04,00,11.40
2011,06,26,04,01,11.40
2011,06,26,04,02,11.40
2011,06,26,04,03,11.40
2011,06,26,04,04,11.40
2011,06,26,04,05,11.40
2011,06,26,04,06,11.40
2011,06,26,04,07,11.40
2011,06,26,04,08,11.40
2011,06,26,04,09,11.40
2011,06,26,04,10,11.40
2011,06,26,04,11,11.40
2011,06,26,04,12,11.40
2011,06,26,04,13,11.40
2011,06,26,04,14,11.40
2011,06,26,04,15,11.30
2011,06,26,04,16,11.30
2011,06,26,04,17,11.30
2011,06,26,04,18,11.30
2011,06,26,04,19,11.30
2011,06,26,04,20,11.30
2011,06,26,04,21,11.30
2011,06,26,04,22,11.30
2011,06,26,04,23,11.30
2011,06,26,04,24,11.30
2011,06,26,04,25,11.30
2011,06,26,04,26,11.30
2011,06,26,04,27,11.30
2011,06,26,04,28,11.30
2011,06,26,04,29,11.30
2011,06,26,04,30,11.30
2011,06,26,04,31,11.20
2011,06,26,04,32,11.20
2011,06,26,04,33,11.20
2011,06,26,04,34,11.20
2011,06,26,04,35,11.20
2011,06,26,04,36,11.20
2011,06,26,04,37,11.20
2011,06,26,04,38,11.20
2011,06,26,04,39,11.20
2011,06,26,04,40,11.20
2011,06,26,04,41,11.20
2011,06,26,04,42,11.20
2011,06,26,04,43,11.20
2011,06,26,04,44,11.20
2011,06,26,04,45,11.20
2011,06,26,04,46,11.20
2011,06,26,04,47,11.30
2011,06,26,04,48,11.30
2011,06,26,04,49,11.30
2011,06,26,04,50,11.30
2011,06,26,04,51,11.30
2011,06,26,04,52,11.30
2011,06,26,04,53,11.30
2011,06,26,04,54,11.40
2011,06,26,04,55,11.40
2011,06,26,04,56,11.40
2011,06,26,04,57,11.50
2011,06,26,04,58,11.50
2011,06,26,04,59,11.60
2011,06,26,05,00,11.60
2011,06,26,05,01,11.70
2011,06,26,05,02,11.70
2011,06,26,05,03,11.70
2011,06,26,05,04,11.70
2011,06,26,05,05,11.70
2011,06,26,05,06,11.80
2011,06,26,05,07,11.80
2011,06,26,05,08,11.80
2011,06,26,05,09,11.80
2011,06,26,05,10,11.80
2011,06,26,05,11,11.80
2011,06,26,05,12,11.80
2011,06,26,05,13,11.80
2011,06,26,05,14,11.80
2011,06,26,05,15,11.80
2011,06,26,05,16,11.80
2011,06,26,05,17,11.80
2011,06,26,05,18,11.80
2011,06,26,05,19,11.90
2011,06,26,05,20,11.90
2011,06,26,05,21,11.90
2011,06,26,05,22,11.90
2011,06,26,05,23,11.90
2011,06,26,05,24,11.90
2011,06,26,05,25,11.90
2011,06,26,05,26,11.90
2011,06,26,05,27,11.90
2011,06,26,05,28,11.90
2011,06,26,05,29,11.90
2011,06,26,05,30,11.90
2011,06,26,05,31,11.90
2011,06,26,05,32,11.90
2011,06,26,05,33,11.90
2011,06,26,05,34,11.90
2011,06,26,05,35,11.90
2011,06,26,05,36,11.90
2011,06,26,05,37,11.90
2011,06,26,05,38,11.90
2011,06,26,05,39,11.90
2011,06,26,05,40,11.90
2011,06,26,05,41,11.90
2011,06,26,05,42,11.90
2011,06,26,05,43,11.90
2011,06,26,05,44,11.90
2011,06,26,05,45,11.90
2011,06,26,05,46,11.90
2011,06,26,05,47,11.90
2011,06,26,05,48,11.90
2011,06,26,05,49,11.90
2011,06,26,05,50,11.90
2011,06,26,05,51,11.90
2011,06,26,05,52,11.90
2011,06,26,05,53,11.90
2011,06,26,05,54,11.90
2011,06,26,05,55,11.90
2011,06,26,05,56,11.90
2011,06,26,05,57,11.90
2011,06,26,05,58,11.90
2011,06,26,05,59,11.90
2011,06,26,06,00,11.90
2011,06,26,06,01,11.90
2011,06,26,06,02,11.90
2011,06,26,06,03,11.90
2011,06,26,06,04,11.90
2011,06,26,06,05,11.90
2011,06,26,06,06,11.90
2011,06,26,06,07,11.90
2011,06,26,06,08,11.90
2011,06,26,06,09,11.90
2011,06,26,06,10,11.90
2011,06,26,06,11,11.90
2011,06,26,06,12,11.90
2011,06,26,06,13,11.90
2011,06,26,06,14,11.90
2011,06,26,06,15,11.90
2011,06,26,06,16,11.90
2011,06,26,06,17,11.90
2011,06,26,06,18,11.90
2011,06,26,06,19,11.90
2011,06,26,06,20,11.90
2011,06,26,06,21,11.90
2011,06,26,06,22,11.90
2011,06,26,06,23,11.90
2011,06,26,06,24,11.90
2011,06,26,06,25,12.00
2011,06,26,06,26,12.00
2011,06,26,06,27,12.00
2011,06,26,06,28,12.00
2011,06,26,06,29,12.00
2011,06,26,06,30,12.00
2011,06,26,06,31,12.00
2011,06,26,06,32,12.00
2011,06,26,06,33,12.00
2011,06,26,06,34,12.00
2011,06,26,06,35,12.00
2011,06,26,06,36,12.00
2011,06,26,06,37,12.00
2011,06,26,06,38,12.10
2011,06,26,06,39,12.10
2011,06,26,06,40,12.10
2011,06,26,06,41,12.10
2011,06,26,06,42,12.10
2011,06,26,06,43,12.10
2011,06,26,06,44,12.10
2011,06,26,06,45,12.10
2011,06,26,06,46,12.10
2011,06,26,06,47,12.10
2011,06,26,06,48,12.10
2011,06,26,06,49,12.10
2011,06,26,06,50,12.10
2011,06,26,06,51,12.20
2011,06,26,06,52,12.20
2011,06,26,06,53,12.20
2011,06,26,06,54,12.20
2011,06,26,06,55,12.20
2011,06,26,06,56,12.20
2011,06,26,06,57,12.30
2011,06,26,06,58,12.30
2011,06,26,06,59,12.30
2011,06,26,07,00,12.30
2011,06,26,07,01,12.30
2011,06,26,07,02,12.40
2011,06,26,07,03,12.40
2011,06,26,07,04,12.40
2011,06,26,07,05,12.50
2011,06,26,07,06,12.50
2011,06,26,07,07,12.50
2011,06,26,07,08,12.60
2011,06,26,07,09,12.60
2011,06,26,07,10,12.60
2011,06,26,07,11,12.60
2011,06,26,07,12,12.70
2011,06,26,07,13,12.70
2011,06,26,07,14,12.70
2011,06,26,07,15,12.70
2011,06,26,07,16,12.70
2011,06,26,07,17,12.70
2011,06,26,07,18,12.70
2011,06,26,07,19,12.80
2011,06,26,07,20,12.80
2011,06,26,07,21,12.80
2011,06,26,07,22,12.80
2011,06,26,07,23,12.80
2011,06,26,07,24,12.80
2011,06,26,07,25,12.80
2011,06,26,07,26,12.90
2011,06,26,07,27,12.90
2011,06,26,07,28,12.90
2011,06,26,07,29,12.90
2011,06,26,07,30,12.90
2011,06,26,07,31,12.90
2011,06,26,07,32,12.90
2011,06,26,07,33,12.90
2011,06,26,07,34,12.90
2011,06,26,07,35,12.90
2011,06,26,07,36,13.00
2011,06,26,07,37,13.00
2011,06,26,07,38,13.00
2011,06,26,07,39,13.00
2011,06,26,07,40,13.00
2011,06,26,07,41,13.00
2011,06,26,07,42,13.00
2011,06,26,07,43,13.00
2011,06,26,07,44,13.00
2011,06,26,07,45,13.00
2011,06,26,07,46,13.10
2011,06,26,07,47,13.10
2011,06,26,07,48,13.10
2011,06,26,07,49,13.20
2011,06,26,07,50,13.20
2011,06,26,07,51,13.30
2011,06,26,07,52,13.40
2011,06,26,07,53,13.40
2011,06,26,07,54,13.50
2011,06,26,07,55,13.60
2011,06,26,07,56,13.70
2011,06,26,07,57,13.80
2011,06,26,07,58,13.80
2011,06,26,07,59,13.90
2011,06,26,08,00,13.90
2011,06,26,08,01,14.00
2011,06,26,08,02,14.00
2011,06,26,08,03,14.10
2011,06,26,08,04,14.10
2011,06,26,08,05,14.10
2011,06,26,08,06,14.20
2011,06,26,08,07,14.20
2011,06,26,08,08,14.20
2011,06,26,08,09,14.30
2011,06,26,08,10,14.30
2011,06,26,08,11,14.30
2011,06,26,08,12,14.30
2011,06,26,08,13,14.30
2011,06,26,08,14,14.30
2011,06,26,08,15,14.30
2011,06,26,08,16,14.30
2011,06,26,08,17,14.20
2011,06,26,08,18,14.20
2011,06,26,08,19,14.20
2011,06,26,08,20,14.10
2011,06,26,08,21,14.10
2011,06,26,08,22,14.10
2011,06,26,08,23,14.10
2011,06,26,08,24,14.10
2011,06,26,08,25,14.10
2011,06,26,08,26,14.10
2011,06,26,08,27,14.10
2011,06,26,08,28,14.10
2011,06,26,08,29,14.10
2011,06,26,08,30,14.10
2011,06,26,08,31,14.20
2011,06,26,08,32,14.20
2011,06,26,08,33,14.20
2011,06,26,08,34,14.20
2011,06,26,08,35,14.20
2011,06,26,08,36,14.20
2011,06,26,08,37,14.20
2011,06,26,08,38,14.30
2011,06,26,08,39,14.30
2011,06,26,08,40,14.30
2011,06,26,08,41,14.20
2011,06,26,08,42,14.20
2011,06,26,08,43,14.10
2011,06,26,08,44,14.00
2011,06,26,08,45,14.00
2011,06,26,08,46,14.00
2011,06,26,08,47,14.10
2011,06,26,08,48,14.10
2011,06,26,08,49,14.20
2011,06,26,08,50,14.20
2011,06,26,08,51,14.30
2011,06,26,08,52,14.40
2011,06,26,08,53,14.50
2011,06,26,08,54,14.60
2011,06,26,08,55,14.70
2011,06,26,08,56,14.80
2011,06,26,08,57,14.80
2011,06,26,08,58,15.00
2011,06,26,08,59,15.00
2011,06,26,09,00,15.00
2011,06,26,09,01,15.10
2011,06,26,09,02,15.20
2011,06,26,09,03,15.30
2011,06,26,09,04,15.40
2011,06,26,09,05,15.50
2011,06,26,09,06,15.60
2011,06,26,09,07,15.60
2011,06,26,09,08,15.70
2011,06,26,09,09,15.80
2011,06,26,09,10,15.90
2011,06,26,09,11,16.00
2011,06,26,09,12,16.00
2011,06,26,09,13,16.10
2011,06,26,09,14,16.20
2011,06,26,09,15,16.20
2011,06,26,09,16,16.30
2011,06,26,09,17,16.20
2011,06,26,09,18,16.20
2011,06,26,09,19,16.20
2011,06,26,09,20,16.20
2011,06,26,09,21,16.10
2011,06,26,09,22,16.10
2011,06,26,09,23,16.10
2011,06,26,09,24,16.10
2011,06,26,09,25,16.10
2011,06,26,09,26,16.10
2011,06,26,09,27,16.20
2011,06,26,09,28,16.20
2011,06,26,09,29,16.20
2011,06,26,09,30,16.30
2011,06,26,09,31,16.30
2011,06,26,09,32,16.30
2011,06,26,09,33,16.30
2011,06,26,09,34,16.40
2011,06,26,09,35,16.40
2011,06,26,09,36,16.50
2011,06,26,09,37,16.50
2011,06,26,09,38,16.50
2011,06,26,09,39,16.60
2011,06,26,09,40,16.50
2011,06,26,09,41,16.40
2011,06,26,09,42,16.30
2011,06,26,09,43,16.30
2011,06,26,09,44,16.30
2011,06,26,09,45,16.30
2011,06,26,09,46,16.40
2011,06,26,09,47,16.50
2011,06,26,09,48,16.60
2011,06,26,09,49,16.70
2011,06,26,09,50,16.80
2011,06,26,09,51,16.80
2011,06,26,09,52,16.90
2011,06,26,09,53,17.00
2011,06,26,09,54,17.10
2011,06,26,09,55,17.20
2011,06,26,09,56,17.30
2011,06,26,09,57,17.30
2011,06,26,09,58,17.40
2011,06,26,09,59,17.50
2011,06,26,10,00,17.50
2011,06,26,10,01,17.60
2011,06,26,10,02,17.60
2011,06,26,10,03,17.70
2011,06,26,10,04,17.60
2011,06,26,10,05,17.50
2011,06,26,10,06,17.40
2011,06,26,10,07,17.30
2011,06,26,10,08,17.20
2011,06,26,10,09,17.20
2011,06,26,10,10,17.20
2011,06,26,10,11,17.20
2011,06,26,10,12,17.30
2011,06,26,10,13,17.30
2011,06,26,10,14,17.20
2011,06,26,10,15,17.20
2011,06,26,10,16,17.20
2011,06,26,10,17,17.20
2011,06,26,10,18,17.20
2011,06,26,10,19,17.20
2011,06,26,10,20,17.30
2011,06,26,10,21,17.30
2011,06,26,10,22,17.40
2011,06,26,10,23,17.40
2011,06,26,10,24,17.50
2011,06,26,10,25,17.50
2011,06,26,10,26,17.60
2011,06,26,10,27,17.60
2011,06,26,10,28,17.70
2011,06,26,10,29,17.80
2011,06,26,10,30,17.80
2011,06,26,10,31,17.80
2011,06,26,10,32,17.80
2011,06,26,10,33,17.80
2011,06,26,10,34,17.70
2011,06,26,10,35,17.70
2011,06,26,10,36,17.60
2011,06,26,10,37,17.50
2011,06,26,10,38,17.40
2011,06,26,10,39,17.40
2011,06,26,10,40,17.40
2011,06,26,10,41,17.40
2011,06,26,10,42,17.40
2011,06,26,10,43,17.40
2011,06,26,10,44,17.40
2011,06,26,10,45,17.40
2011,06,26,10,46,17.50
2011,06,26,10,47,17.60
2011,06,26,10,48,17.50
2011,06,26,10,49,17.40
2011,06,26,10,50,17.40
2011,06,26,10,51,17.40
2011,06,26,10,52,17.40
2011,06,26,10,53,17.50
2011,06,26,10,54,17.50
2011,06,26,10,55,17.60
2011,06,26,10,56,17.60
2011,06,26,10,57,17.70
2011,06,26,10,58,17.80
2011,06,26,10,59,17.80
2011,06,26,11,00,17.90
2011,06,26,11,01,17.90
2011,06,26,11,02,17.90
2011,06,26,11,03,18.00
2011,06,26,11,04,18.00
2011,06,26,11,05,18.00
2011,06,26,11,06,18.10
2011,06,26,11,07,18.10
2011,06,26,11,08,18.10
2011,06,26,11,09,18.10
2011,06,26,11,10,18.10
2011,06,26,11,11,18.10
2011,06,26,11,12,18.10
2011,06,26,11,13,18.10
2011,06,26,11,14,18.00
2011,06,26,11,15,18.00
2011,06,26,11,16,18.00
2011,06,26,11,17,18.00
2011,06,26,11,18,18.00
2011,06,26,11,19,18.00
2011,06,26,11,20,18.00
2011,06,26,11,21,18.00
2011,06,26,11,22,18.00
2011,06,26,11,23,18.10
2011,06,26,11,24,18.20
2011,06,26,11,25,18.20
2011,06,26,11,26,18.30
2011,06,26,11,27,18.30
2011,06,26,11,28,18.40
2011,06,26,11,29,18.40
2011,06,26,11,30,18.50
2011,06,26,11,31,18.60
2011,06,26,11,32,18.60
2011,06,26,11,33,18.60
2011,06,26,11,34,18.70
2011,06,26,11,35,18.70
2011,06,26,11,36,18.70
2011,06,26,11,37,18.70
2011,06,26,11,38,18.70
2011,06,26,11,39,18.60
2011,06,26,11,40,18.60
2011,06,26,11,41,18.50
2011,06,26,11,42,18.50
2011,06,26,11,43,18.50
2011,06,26,11,44,18.50
2011,06,26,11,45,18.50
2011,06,26,11,46,18.50
2011,06,26,11,47,18.60
2011,06,26,11,48,18.60
2011,06,26,11,49,18.70
2011,06,26,11,50,18.60
2011,06,26,11,51,18.60
2011,06,26,11,52,18.60
2011,06,26,11,53,18.70
2011,06,26,11,54,18.70
2011,06,26,11,55,18.70
2011,06,26,11,56,18.80
2011,06,26,11,57,18.90
2011,06,26,11,58,18.90
2011,06,26,11,59,19.00
2011,06,26,12,00,19.20
2011,06,26,12,01,19.20
2011,06,26,12,02,19.30
2011,06,26,12,03,19.30
2011,06,26,12,04,19.40
2011,06,26,12,05,19.40
2011,06,26,12,06,19.40
2011,06,26,12,07,19.40
2011,06,26,12,08,19.40
2011,06,26,12,09,19.50
2011,06,26,12,10,19.50
2011,06,26,12,11,19.40
2011,06,26,12,12,19.30
2011,06,26,12,13,19.30
2011,06,26,12,14,19.20
2011,06,26,12,15,19.00
2011,06,26,12,16,18.90
2011,06,26,12,17,18.80
2011,06,26,12,18,18.90
2011,06,26,12,19,18.90
2011,06,26,12,20,18.90
2011,06,26,12,21,18.90
2011,06,26,12,22,19.00
2011,06,26,12,23,18.90
2011,06,26,12,24,18.80
2011,06,26,12,25,18.70
2011,06,26,12,26,18.60
2011,06,26,12,27,18.40
2011,06,26,12,28,18.20
2011,06,26,12,29,18.20
2011,06,26,12,30,18.20
2011,06,26,12,31,18.20
2011,06,26,12,32,18.30
2011,06,26,12,33,18.40
2011,06,26,12,34,18.50
2011,06,26,12,35,18.60
2011,06,26,12,36,18.70
2011,06,26,12,37,18.80
2011,06,26,12,38,18.90
2011,06,26,12,39,18.90
2011,06,26,12,40,18.90
2011,06,26,12,41,18.90
2011,06,26,12,42,18.90
2011,06,26,12,43,18.90
2011,06,26,12,44,18.80
2011,06,26,12,45,18.90
2011,06,26,12,46,18.90
2011,06,26,12,47,19.00
2011,06,26,12,48,19.00
2011,06,26,12,49,19.00
2011,06,26,12,50,18.90
2011,06,26,12,51,18.90
2011,06,26,12,52,18.80
2011,06,26,12,53,18.80
2011,06,26,12,54,18.80
2011,06,26,12,55,18.80
2011,06,26,12,56,18.90
2011,06,26,12,57,18.80
2011,06,26,12,58,18.70
2011,06,26,12,59,18.70
2011,06,26,13,00,18.70
2011,06,26,13,01,18.70
2011,06,26,13,02,18.70
2011,06,26,13,03,18.80
2011,06,26,13,04,18.80
2011,06,26,13,05,18.80
2011,06,26,13,06,18.90
2011,06,26,13,07,18.90
2011,06,26,13,08,19.00
2011,06,26,13,09,19.10
2011,06,26,13,10,19.10
2011,06,26,13,11,19.20
2011,06,26,13,12,19.20
2011,06,26,13,13,19.30
2011,06,26,13,14,19.30
2011,06,26,13,15,19.30
2011,06,26,13,16,19.20
2011,06,26,13,17,19.20
2011,06,26,13,18,19.20
2011,06,26,13,19,19.30
2011,06,26,13,20,19.30
2011,06,26,13,21,19.30
2011,06,26,13,22,19.30
2011,06,26,13,23,19.40
2011,06,26,13,24,19.40
2011,06,26,13,25,19.50
2011,06,26,13,26,19.60
2011,06,26,13,27,19.60
2011,06,26,13,28,19.70
2011,06,26,13,29,19.80
2011,06,26,13,30,19.80
2011,06,26,13,31,19.80
2011,06,26,13,32,19.80
2011,06,26,13,33,19.80
2011,06,26,13,34,19.80
2011,06,26,13,35,19.90
2011,06,26,13,36,19.90
2011,06,26,13,37,19.90
2011,06,26,13,38,20.00
2011,06,26,13,39,20.00
2011,06,26,13,40,20.10
2011,06,26,13,41,20.20
2011,06,26,13,42,20.20
2011,06,26,13,43,20.20
2011,06,26,13,44,20.20
2011,06,26,13,45,20.10
2011,06,26,13,46,20.10
2011,06,26,13,47,20.10
2011,06,26,13,48,20.10
2011,06,26,13,49,20.20
2011,06,26,13,50,20.30
2011,06,26,13,51,20.30
2011,06,26,13,52,20.40
2011,06,26,13,53,20.40
2011,06,26,13,54,20.30
2011,06,26,13,55,20.30
2011,06,26,13,56,20.30
2011,06,26,13,57,20.40
2011,06,26,13,58,20.40
2011,06,26,13,59,20.50
2011,06,26,14,00,20.50
2011,06,26,14,01,20.50
2011,06,26,14,02,20.60
2011,06,26,14,03,20.60
2011,06,26,14,04,20.50
2011,06,26,14,05,20.50
2011,06,26,14,06,20.40
2011,06,26,14,07,20.30
2011,06,26,14,08,20.30
2011,06,26,14,09,20.30
2011,06,26,14,10,20.30
2011,06,26,14,11,20.30
2011,06,26,14,12,20.40
2011,06,26,14,13,20.40
2011,06,26,14,14,20.30
2011,06,26,14,15,20.30
2011,06,26,14,16,20.20
2011,06,26,14,17,20.10
2011,06,26,14,18,20.10
2011,06,26,14,19,20.10
2011,06,26,14,20,20.00
2011,06,26,14,21,20.00
2011,06,26,14,22,19.90
2011,06,26,14,23,19.90
2011,06,26,14,24,19.90
2011,06,26,14,25,20.00
2011,06,26,14,26,19.90
2011,06,26,14,27,19.80
2011,06,26,14,28,19.60
2011,06,26,14,29,19.60
2011,06,26,14,30,19.60
2011,06,26,14,31,19.60
2011,06,26,14,32,19.70
2011,06,26,14,33,19.70
2011,06,26,14,34,19.70
2011,06,26,14,35,19.80
2011,06,26,14,36,19.90
2011,06,26,14,37,19.90
2011,06,26,14,38,19.90
2011,06,26,14,39,19.90
2011,06,26,14,40,19.90
2011,06,26,14,41,19.90
2011,06,26,14,42,19.90
2011,06,26,14,43,19.90
2011,06,26,14,44,19.80
2011,06,26,14,45,19.80
2011,06,26,14,46,19.70
2011,06,26,14,47,19.70
2011,06,26,14,48,19.70
2011,06,26,14,49,19.70
2011,06,26,14,50,19.70
2011,06,26,14,51,19.70
2011,06,26,14,52,19.70
2011,06,26,14,53,19.80
2011,06,26,14,54,19.80
2011,06,26,14,55,19.70
2011,06,26,14,56,19.70
2011,06,26,14,57,19.70
2011,06,26,14,58,19.80
2011,06,26,14,59,19.80
2011,06,26,15,00,19.90
2011,06,26,15,01,19.90
2011,06,26,15,02,19.90
2011,06,26,15,03,19.90
2011,06,26,15,04,19.90
2011,06,26,15,05,19.90
2011,06,26,15,06,19.90
2011,06,26,15,07,19.90
2011,06,26,15,08,20.00
2011,06,26,15,09,20.10
2011,06,26,15,10,20.10
2011,06,26,15,11,20.20
2011,06,26,15,12,20.20
2011,06,26,15,13,20.20
2011,06,26,15,14,20.20
2011,06,26,15,15,20.30
2011,06,26,15,16,20.10
2011,06,26,15,17,20.00
2011,06,26,15,18,19.90
2011,06,26,15,19,19.80
2011,06,26,15,20,19.80
2011,06,26,15,21,19.70
2011,06,26,15,22,19.60
2011,06,26,15,23,19.50
2011,06,26,15,24,19.40
2011,06,26,15,25,19.20
2011,06,26,15,26,19.10
2011,06,26,15,27,19.20
2011,06,26,15,28,19.30
2011,06,26,15,29,19.40
2011,06,26,15,30,19.50
2011,06,26,15,31,19.60
2011,06,26,15,32,19.70
2011,06,26,15,33,19.80
2011,06,26,15,34,19.80
2011,06,26,15,35,19.70
2011,06,26,15,36,19.70
2011,06,26,15,37,19.60
2011,06,26,15,38,19.60
2011,06,26,15,39,19.70
2011,06,26,15,40,19.70
2011,06,26,15,41,19.70
2011,06,26,15,42,19.70
2011,06,26,15,43,19.80
2011,06,26,15,44,19.80
2011,06,26,15,45,19.80
2011,06,26,15,46,19.70
2011,06,26,15,47,19.70
2011,06,26,15,48,19.50
2011,06,26,15,49,19.30
2011,06,26,15,50,19.20
2011,06,26,15,51,19.20
2011,06,26,15,52,19.20
2011,06,26,15,53,19.20
2011,06,26,15,54,19.30
2011,06,26,15,55,19.40
2011,06,26,15,56,19.40
2011,06,26,15,57,19.50
2011,06,26,15,58,19.50
2011,06,26,15,59,19.60
2011,06,26,16,00,19.60
2011,06,26,16,01,19.60
2011,06,26,16,02,19.50
2011,06,26,16,03,19.50
2011,06,26,16,04,19.40
2011,06,26,16,05,19.40
2011,06,26,16,06,19.40
2011,06,26,16,07,19.40
2011,06,26,16,08,19.30
2011,06,26,16,09,19.30
2011,06,26,16,10,19.30
2011,06,26,16,11,19.00
2011,06,26,16,12,18.80
2011,06,26,16,13,18.70
2011,06,26,16,14,18.60
2011,06,26,16,15,18.60
2011,06,26,16,16,18.60
2011,06,26,16,17,18.70
2011,06,26,16,18,18.70
2011,06,26,16,19,18.80
2011,06,26,16,20,18.80
2011,06,26,16,21,18.90
2011,06,26,16,22,18.90
2011,06,26,16,23,18.90
2011,06,26,16,24,18.90
2011,06,26,16,25,18.90
2011,06,26,16,26,18.90
2011,06,26,16,27,18.90
2011,06,26,16,28,18.90
2011,06,26,16,29,18.90
2011,06,26,16,30,18.80
2011,06,26,16,31,18.80
2011,06,26,16,32,18.80
2011,06,26,16,33,18.80
2011,06,26,16,34,18.80
2011,06,26,16,35,18.70
2011,06,26,16,36,18.70
2011,06,26,16,37,18.60
2011,06,26,16,38,18.60
2011,06,26,16,39,18.60
2011,06,26,16,40,18.60
2011,06,26,16,41,18.60
2011,06,26,16,42,18.70
2011,06,26,16,43,18.70
2011,06,26,16,44,18.70
2011,06,26,16,45,18.70
2011,06,26,16,46,18.70
2011,06,26,16,47,18.70
2011,06,26,16,48,18.70
2011,06,26,16,49,18.60
2011,06,26,16,50,18.40
2011,06,26,16,51,18.30
2011,06,26,16,52,18.20
2011,06,26,16,53,18.20
2011,06,26,16,54,18.30
2011,06,26,16,55,18.30
2011,06,26,16,56,18.40
2011,06,26,16,57,18.40
2011,06,26,16,58,18.30
2011,06,26,16,59,18.20
2011,06,26,17,00,18.20
2011,06,26,17,01,18.10
2011,06,26,17,02,18.10
2011,06,26,17,03,18.10
2011,06,26,17,04,18.10
2011,06,26,17,05,18.20
2011,06,26,17,06,18.30
2011,06,26,17,07,18.40
2011,06,26,17,08,18.40
2011,06,26,17,09,18.50
2011,06,26,17,10,18.60
2011,06,26,17,11,18.70
2011,06,26,17,12,18.70
2011,06,26,17,13,18.80
2011,06,26,17,14,18.80
2011,06,26,17,15,18.80
2011,06,26,17,16,18.80
2011,06,26,17,17,18.90
2011,06,26,17,18,18.90
2011,06,26,17,19,18.90